Regional Weather Roundup
Issued by NWS Pendleton, OR

Home | Current Version | Previous Version | Text Only | Print | Product List | Glossary On
Versions: 1 2 3 4 5 6 7 8 9 10 11 12 13 14 15 16 17 18 19 20 21 22 23 24 25 26 27 28 29 30 31 32 33 34 35 36 37 38 39 40 41 42 43 44 45 46 47 48 49 50
000
ASUS46 KPDT 201104
RWRPDT
PENDLETON REGIONAL WEATHER ROUNDUP
NATIONAL WEATHER SERVICE PENDLETON OREGON
400 AM PDT SAT SEP 20 2014

NOTE: FAIR INDICATES FEW OR NO CLOUDS BELOW 12,000 FEET WITH NO
SIGNIFICANT WEATHER AND/OR OBSTRUCTIONS TO VISIBILITY.

# INDICATES UNOFFICIAL STATION AND DATA

WAZ520-201210-
EAST SLOPES OF WASHINGTON CASCADES

CITY            SKY/WX      TMP DP  RH  WIND    PRES   REMARKS
#BULLFROG       N/A         48  47  96  CALM    N/A
#BUMPING DAM    N/A         46  N/A N/A N2      N/A
#CLE ELUM HS    N/A         48  46  93  CALM    30.08R
#CLE ELUM 2NW   N/A         46  45  96  NW1     N/A
#CLE ELUM LAKE  N/A         54  48  80  CALM    30.03R
#CLIFFDEL 2NW   N/A         48  45  89  CALM    N/A
#EASTON DOT     N/A         51  47  86  NE3     N/A
#GLENWOOD       N/A         44  43  96  CALM    30.05R
#MANASTASH CYN  N/A         51  42  71  CALM    30.11R
#NELSON 3SW     N/A         49  45  86  CALM    30.24S
#NILE           N/A         49  46  89  CALM    29.36R
#PEOH POINT     N/A         53  50  89  W7      N/A
#RONALD 2NW     N/A         52  46  80  E1      30.01S
#SNOWDEN        N/A          0  -78  1  CALM    N/A
#TEANAWAY 4NE   N/A         48  46  93  CALM    N/A
#TROUT LAKE 1NE N/A         50  47  89  N1      30.03R
$$

WAZ521-201210-
SIMCOE HIGHLANDS

CITY            SKY/WX      TMP DP  RH  WIND    PRES   REMARKS
#BICKLETON HS   N/A         58  43  57  N3      30.18S
#SATUS PASS DOT N/A         55  45  69  CALM    N/A
#CENTERVILLE 4W N/A         59  51  75  NW5     29.83S
#CENTERVILLE 1SWN/A         46  41  83  CALM    30.00R
#GOLDENDALE     N/A         54  48  80  E2      N/A
#GOLDENDALE 1NE N/A         52  45  77  N3      N/A
#GOLDENDALE 1S  N/A         50  46  86  CALM    30.04S
#GOODNOE HILLS  N/A         64  52  65  NE2     30.00R
#LYLE 6NE       N/A         58  52  80  N2      29.98R
$$

WAZ026-201210-
KITTITAS VALLEY

CITY            SKY/WX      TMP DP  RH  WIND    PRES   REMARKS
ELLENSBURG AP   CLEAR       51  46  83  N3      30.11R
#ELLENSBURG CWU N/A         55  51  86  NW1     30.01S
#ELLENSBURG 3NE N/A         52  49  89  CALM    30.11R
#ELLENSBURG     N/A         55  54  96  N1      N/A
#KITTITAS 3S    N/A         48  46  93  CALM    30.03R
#MANASTASH RDG  N/A         58  58  100 W6      N/A
#ROCKY CYN DOT  N/A         55  53  93  W7      N/A
#RYEGRASS DOT   N/A         55  52  90  W7      N/A
#THORP 6N       N/A         51  48  89  N7      30.07R
$$

WAZ027-201210-
YAKIMA VALLEY

CITY            SKY/WX      TMP DP  RH  WIND    PRES   REMARKS
SUNNYSIDE AP    CLOUDY      52  50  93  CALM    30.06S
YAKIMA AIRPORT  CLEAR       53  49  86  W9      30.08S
YAKIMA-VAGABOND CLEAR       58  48  69  E7      30.10S
#COWICHE 1N     N/A         60  50  69  NW3     30.26R
#DONALD 2NE     N/A         62  48  60  CALM    30.39S
#GRANDVIEW      N/A         55  50  83  CALM    30.05S
#MABTON         N/A         56  51  83  CALM    30.06R
#MOXEE 2E       N/A         58  45  62  CALM    30.00R
#NACHES 2SW     N/A         60  52  75  W5      30.11R
#PARKER DOT     N/A         67  51  56  SE7     N/A
#SELAH 8E       N/A         53  46  77  SE3     N/A
#TERRACE HTS    N/A         59  51  75  CALM    30.00R
#TOPPENISH      N/A         59  52  78  CALM    29.96R
#I82 S UMTANUM RN/A         60  52  75  N9      N/A
#UNION GAP DOT  N/A         66  51  58  NW5     N/A
#WAPATO 4NE     N/A         62  48  60  CALM    30.39S
#WEST VALLEY    N/A         55  49  80  CALM    30.03R
#W YAKIMA       N/A         62  52  70  NW1     30.04R
#WHITE SWAN 5E  N/A         54  49  83  W2      30.05R
#WILEY CITY 3W  N/A         51  43  74  CALM    30.08R
#ZILLAH DOT     N/A         59  52  78  E2      N/A
$$

WAZ028-201210-
LOWER COLUMBIA BASIN...WASHINGTON

CITY            SKY/WX      TMP DP  RH  WIND    PRES   REMARKS
PASCO           CLEAR       53  51  93  CALM    30.06S
PROSSER AWOS    N/A         54  50  86  N2      30.09S
RICHLAND AWOS   CLEAR       57  52  83  CALM    30.06R
#BASIN CITY 5SW N/A         56  52  86  CALM    30.06R
#BENTON CITY    N/A         59  51  75  W2      29.94S
#CONNELL 5N     N/A         54  47  77  CALM    30.04R
#CONNELL 5NW    N/A         52  46  80  CALM    30.00S
#ELTOPIA        N/A         57  50  77  CALM    30.00R
#ELTOPIA 6NW    N/A         57  52  83  N2      29.03R
#KENNEWICK 3S   N/A         57  53  86  CALM    30.03S
#PASCO-BROADMOORN/A         59  53  80  CALM    29.95R
#PATERSON       N/A         60  53  78  CALM    30.01S
#PROSSER DOT    N/A         56  52  86  CALM    N/A
#PROSSER        N/A         65  50  58  CALM    30.03R
#SAGEMOOR 2W    N/A         58  52  80  CALM    29.89R
#TOUCHET 2S     N/A         48  45  89  CALM    30.02R
#WEST PASCO     N/A         58  49  72  CALM    30.05R
$$

WAZ029-201210-
FOOTHILLS OF THE BLUES...WASHINGTON

CITY            SKY/WX      TMP DP  RH  WIND    PRES   REMARKS
WALLA WALLA AP  CLEAR       59  46  62  SE8     30.07S
#DAYTON SCHOOL  N/A         56  41  57  N1      30.07S
#DELANEY DOT    N/A         49  44  83  S1      N/A
#LOWDEN 2SE     N/A         50  46  86  E2      30.02R
#PLEASANT VIEW 1N/A         60  46  60  N1      30.06S
#PRESCOTT       N/A         55  45  69  CALM    30.02R
#SUDBURY        N/A         50  N/A N/A CALM    N/A
#WHITMAN COLLEGEN/A         58  48  69  SE1     30.07S
#WAITSBURG 8N   N/A         57  36  45  CALM    30.00S
#WALLA WALLA 5E N/A         56  42  59  W7      N/A
#WALLA WALLA U  N/A         56  49  77  CALM    30.02S
#WHITMAN MISSIONN/A         51  47  86  CALM    30.04R
$$

WAZ030-201210-
BLUE MOUNTAINS...WASHINGTON

CITY            SKY/WX      TMP DP  RH  WIND    PRES   REMARKS
$$

ORZ009-041-WAZ024-201210-
COLUMBIA RIVER GORGE

CITY            SKY/WX      TMP DP  RH  WIND    PRES   REMARKS
HOOD RIVER AP   CLEAR       54  50  86  S5      30.06S
THE DALLES AP   CLEAR       61  53  75  CALM    30.04R
#ARLINGTON AIRPON/A         64  51  63  CALM    29.95S
#ARLINGTON HS   N/A         59  51  75  W3      29.93S
#MARYHILL       N/A         63  53  70  CALM    N/A
#MARYHILL 2W    N/A         64  56  75  CALM    N/A
#MOSIER 1S      N/A         59  48  67  CALM    30.06S
#MURDOCK        N/A         65  57  75  NW6     30.05R
#RUFUS DOT      N/A         63  53  70  S6      N/A

$$

ORZ510-201210-
NORTH CENTRAL OREGON

CITY            SKY/WX      TMP DP  RH  WIND    PRES   REMARKS
#CHENOWITH 1W   N/A         58  53  83  NW10    N/A
#COW CYN RST AREN/A         61  48  62  N3      N/A
#DUFUR 9E       N/A         63  52  67  E1      30.04S
#GRASS VALLEY   N/A         48  46  93  S1      N/A
#GRASS VALLEY 1SN/A         55  49  80  CALM    30.02S
#KENT DOT       N/A         58  45  62  NE3     N/A
#MAUPIN SCHOOL  N/A         58  48  69  CALM    28.94S
#MORO SCHOOL    N/A         52  49  89  CALM    30.09R
#SHANIKO 5WSW   N/A         60  45  58  NE12    N/A
#SHANIKO 4NW    N/A         59  48  67  E8      30.13S
#TYGH VALLEY 2NEN/A         55  48  77  CALM    30.02S
#WAPANITIA AIRPON/A         54  48  80  CALM    30.02S
#WASCO DOT      N/A         53  50  89  E1      N/A
#WASCO 5NE      N/A         53  48  83  CALM    30.01S
$$

ORZ511-201210-
CENTRAL OREGON

CITY            SKY/WX      TMP DP  RH  WIND    PRES   REMARKS
BEND AIRPORT    CLEAR       50  43  77  S5      30.14S
MADRAS AIRPORT  CLEAR       50  43  77  S3      30.11S
REDMOND AIRPORT CLEAR       45  39  79  E3      30.11S
#BEND 6E        N/A         52  42  69  CALM    29.93S
#BEND 1SW       N/A         47  40  76  E1      N/A
#BEND-AWBREY    N/A         56  48  74  CALM    30.00S
#BEND-KIM LN    N/A         54  47  77  CALM    30.10S
#CROOKED RVR RANN/A         53  46  77  CALM    30.00S
#CULVER         N/A         52  46  80  CALM    30.06F
#LAKE BILLY CHINN/A         56  37  49  CALM    30.15S
#POWELL BUTTE 3EN/A         49  40  71  SE1     N/A
#POWELL BUTTE   N/A         53  43  69  SW1     29.75F
#PRINEVILLE 3N  N/A         48  42  80  CALM    29.99R
#WARM SPRINGS   N/A         57  46  67  CALM    30.05R


ORZ509-201210-
EAST SLOPES OF OREGON CASCADES

CITY            SKY/WX      TMP DP  RH  WIND    PRES   REMARKS
#BLUE BOX PASS  N/A         57   4  11  CALM    N/A
#CAMP SHERMAN   N/A         42  38  86  CALM    30.03F
#LA PINE DOT    N/A         41  32  70  SE1     N/A
#LA PINE 4NW    N/A         40  34  79  CALM    30.07S
#LAVA BUTTE DOT N/A         46  41  83  CALM    N/A
#MT BACHELOR-MIDN/A         55  39  55  E1      N/A
#SISTERS AIRPOR N/A         44  42  93  CALM    29.91S
#SISTERS ODOT   N/A         43  N/A N/A CALM    N/A
#SISTERS 3N     N/A         43  32  65  CALM    N/A
#SUNRIVER       N/A         44  41  89  CALM    29.92S
#SUNRIVER AP    N/A         43  41  93  CALM    29.99S
#SUTTLE LK DOT  N/A         44  44  100 E7      N/A
#TUMALO 3W      N/A         61  47  60  SW2     29.88S
#WANOGA BUTTE D N/A         57  41  55  NE2     N/A

$$

ORZ044-201210-
LOWER COLUMBIA BASIN...OREGON

CITY            SKY/WX      TMP DP  RH  WIND    PRES   REMARKS
HERMISTON       CLEAR       52  45  77  E6      30.04S
#BOARDMAN SCHOOLN/A         55  48  77  CALM    30.03S
#BOARDMAN 3W    N/A         52  50  93  CALM    29.76R
#BOARDMAN 8SW   N/A         58  50  75  SW2     30.02S
#ECHO 8SW       N/A         54  44  69  SW3     30.02S
#IONE SCHOOL    N/A         56  44  64  CALM    30.05S
#IRRIGON 4NW    N/A         55  50  83  E3      N/A
#UMATILLA SCHOOLN/A         56  54  93  S2      30.09R
#UMATILLA       N/A         61  46  58  CALM    30.01S
$$

ORZ507-201210-
NORTHERN FOOTHILLS OF THE BLUES

CITY            SKY/WX      TMP DP  RH  WIND    PRES   REMARKS
PENDLETON AIRPT CLEAR       56  43  62  SE8     30.07S
#ADAMS 3WNW     N/A         54  44  69  CALM    30.03S
#ATHENA         N/A         50  43  77  CALM    30.05S
#HELIX SCHOOL   N/A         52  42  69  S2      30.03R
#HELIX 3N       N/A         57  43  59  W1      30.05R
#HELIX 6SW      N/A         54  43  66  E3      30.06S
#HOLDMAN 5SE    N/A         56  44  64  CALM    30.07R
#HOLDMAN 6E     N/A         59  44  57  CALM    29.84S
#M-F GROVE ELEM N/A         61  44  53  CALM    30.05R
#M-FREEWATER 5SEN/A         61  46  58  CALM    30.06R
#PENDLETON DNTN N/A         55  39  55  CALM    30.08S
#PDT AQUATIC CTRN/A         55  38  53  CALM    30.06S
#PENDLETON 5NE  N/A         52  44  74  CALM    30.03S
#PDT SUNRIDGE   N/A         51  44  77  CALM    30.08S
#PENDLETON 7NW  N/A         55  43  64  CALM    26.71
#PILOT ROCK     N/A         56  42  59  CALM    30.10R
#TUTUILLA       N/A         48  43  83  CALM    30.05S
#UMAPINE 2E     N/A         53  48  83  CALM    30.03R
#WESTON SCHOOL  N/A         64  43  46  CALM    30.04S

$$

ORZ508-201210-
SOUTHERN FOOTHILLS OF THE BLUES

CITY            SKY/WX      TMP DP  RH  WIND    PRES   REMARKS
LEXINGTON       CLEAR       57  46  67  SE9     30.09S
#AJAX           N/A         63  46  54  E1      30.02S
#CONDON SCHOOL  N/A         59  50  72  CALM    30.06S
#CONDON 5W      N/A         62  49  62  N2      30.10S
#FOSSIL SCHOOL  N/A         50  42  74  CALM    30.08S
#HEPPNER EOC    N/A         56  44  64  CALM    29.97S
#HEPPNER 4NE    N/A         58  47  67  SE1     30.01F
#LEXINGTON 2SE  N/A         57  46  67  SE5     30.04R
#MIKKALO        N/A         57  46  67  E2      30.07S
#OLEX 4N        N/A         58  47  67  S6      30.04S
#RUGGS 5NE      N/A         58  47  67  NE3     30.27S
#RUGGS 2SW      N/A         59  44  57  S7      30.03R

$$

ORZ502-503-201210-
BLUE MOUNTAINS

CITY            SKY/WX      TMP DP  RH  WIND    PRES   REMARKS
MEACHAM         CLEAR       38  36  92  CALM    30.17S
#BATTLE MTN DOT N/A         51  49  93  NE3     N/A
#HARDMAN 10S    N/A         54  43  66  CALM    30.20S
#HEPPNER 15SE   N/A         50  44  80  SE1     30.09S
#LADD CYN SMT   N/A         46  40  79  NE3     N/A
#LADD CREEK ODOTN/A         49  43  80  S3      N/A
#N POWDER DOT   N/A         44  43  96  NE2     N/A
#PIKES PEAK     N/A         66  44  45  SE2     27.99S
#TOLLGATE       N/A         48  43  83  CALM    30.12S
#TOLLGATE 9W    N/A         57  45  64  SE2     N/A
#TROY SCHOOL    N/A         52  46  80  CALM    29.93S
#UKIAH          N/A         39  36  89  CALM    30.12R
#WESTON 4E      N/A         60  46  60  E5      29.97S
$$

ORZ505-201210-
JOHN DAY BASIN

CITY            SKY/WX      TMP DP  RH  WIND    PRES   REMARKS
JOHN DAY        CLEAR       56  42  59  E8      30.15F
#JOHN DAY KJDY  N/A         50  44  80  CALM    30.18F
#MONUMENT HS    N/A         51  41  68  CALM    30.11S
#MT. VERNON 5SE N/A         54  42  64  CALM    30.11S
#WINLOCK        N/A         54  43  66  CALM    30.19S
$$

ORZ506-201210-
OCHOCO AND JOHN DAY HIGHLANDS

CITY            SKY/WX      TMP DP  RH  WIND    PRES   REMARKS
#BUCK CREEK DOT N/A         56  46  69  S2      N/A
#HORSE RIDGE DO N/A         35  27  72  CALM    N/A
#KEYES SMT DOT  N/A         51  41  68  SE2     N/A
#PAULINA SCHOOL N/A         40  34  79  CALM    30.13S
#PINE MTN OBS   N/A         58  42  55  N2      N/A
#PRAIRIE CITY   N/A         41  37  86  CALM    30.24R
#SENECA 9NW     N/A         38  34  85  CALM    30.04S
$$

ORZ049-201210-
GRANDE RONDE VALLEY

CITY            SKY/WX      TMP DP  RH  WIND    PRES   REMARKS
LA GRANDE       CLEAR       48  32  54  NW6     30.14S
#COVE           N/A         48  43  83  N1      30.05S
#COVE 6NW       N/A         45  40  82  CALM    30.10S
#ELGIN 3N       N/A         46  40  79  CALM    29.87S
#ELGIN 1E       N/A         47  40  76  CALM    N/A
#IMBLER SCHOOL  N/A         51  42  71  NE3     30.09S
#LADD CYN DOT   N/A         54  42  64  SE12    N/A
#LA GRANDE ELEM N/A         52  44  74  CALM    30.12R
#UNION 1S       N/A         46  42  86  CALM    29.96S
$$

ORZ050-201210-
WALLOWA COUNTY

CITY            SKY/WX      TMP DP  RH  WIND    PRES   REMARKS
#ENTERPRISE AP  N/A         48  39  71  CALM    30.10F
#ENTERPRISE HS  N/A         43  39  86  CALM    30.18S
#IMNAHA SCHOOL  N/A         54  44  69  CALM    30.10S
#IMNAHA 10S     N/A         54  42  64  SW5     30.15S
#JOSEPH 3N      N/A         42  38  86  E1      30.18F
#JOSEPH 3W      N/A         52  41  66  SW2     30.02F
#LOSTINE        N/A         43  40  89  CALM    29.88S
#MT HOWARD 8000 N/A         49  33  54  CALM    30.37S
#PROMISE 1S     N/A         49  44  83  CALM    30.16S
#SHEEP RDG 7000 N/A         51  40  66  CALM    30.08S
#WALLOWA SCHOOL N/A         43  40  89  CALM    30.99S



$$



USA.gov is the U.S. government's official web portal to all federal, state and local government web resources and services.